sat.trackr.live / text

‹ back to catalog

STARLINK-35602

NORAD 66403 · 2025-257Z

PAYLOAD ACTIVE UNKNOWN

§ Identity

Operator
Country
US
Launch date
2025-11-09
Launch site
AFETR
Launch vehicle
Mass (kg)
RCS (m²)

Purposes: comms

External: N2YO · Heavens-Above · Gunter

§ Orbital elements

Epoch: 2026-05-25T05:26:26.537856Z

Period
93.85 min
Inclination
53.1573°
Eccentricity
0.0001086
Mean motion
15.34410633 rev/d
Perigee alt
461.9 km
Apogee alt
463.4 km
Semi-major
6,840.8 km
B*
5.1505e-4
RAAN
220.6624°
Arg perigee
71.0577°
Mean anomaly
289.0543°
Rev number
3,146

§ Raw data

STARLINK-356021 66403U 25257Z   26145.22669604  .00017071  00000+0  51505-3 0  99972 66403  53.1573 220.6624 0001086  71.0577 289.0543 15.34410633 31464

JSON: /api/v1/satellites/66403 · /tle

For live sub-satellite position, see the globe view (requires WebGL).

§ Visibility from observer

Set your observer location to see the next 7 days of passes ≥ 10°. The values pass through the URL so the page stays shareable.

No JS? Fill the form by hand. The geolocation button needs JavaScript.